Location: Arroyo de Valdeoliva
(40.1604°N, 4.9878°W)
Time: 08:59:44
(UTC+00:00)

Cosmos 1825 Rocket - Pass Details

Date: 22 March 2026
Orbit: 596 x 624 km, 82.5° (Epoch: 18 April)

Event Time Altitude Azimuth Distance (km) Brightness Sun altitude
Rises 04:24:28 0° 5° (N) 2,888 7.3 -22.5°
Reaches altitude 10° 04:27:02 10° 18° (NNE) 1,973 6.6 -22.0°
Maximum altitude 04:30:40 25° 75° (ENE) 1,229 5.9 -21.4°
Drops below altitude 10° 04:34:15 10° 131° (SE) 1,946 6.5 -20.7°
Sets 04:36:45 0° 145° (SE) 2,840 7.2 -20.3°
